Brainerd, MN

12:47 PM CDT on August 30, 2016 (GMT -0500)
Brainerd-Crow Wing County Regional

Weather History for KBRD - November, 2013

Change the Weather History Date:

Wednesday, November 27, 2013

  Actual Average Record
Temperature  
Mean Temperature 10 °F -  
Max Temperature 21 °F 30 °F 57 °F (1998)
Min Temperature 1 °F 8 °F -15 °F (1975)
Degree Days  
Heating Degree Days 55    
Moisture  
Dew Point 5 °F    
Average Humidity 69    
Maximum Humidity 84    
Minimum Humidity 57    
Precipitation  
Precipitation 0.00 in - - ()
Sea Level Pressure  
Sea Level Pressure 30.25 in    
Wind  
Wind Speed 4 mph (SE)    
Max Wind Speed 10 mph    
Max Gust Speed -    
Visibility 9 miles    
Events Snow    
Averages and records for this station are not official NWS values.
T = Trace of Precipitation, MM = Missing Value Source: NWS Daily Summary

Daily Weather History Graph

Daily Weather History Graph

Search for Another Location

Airport or City:

Trip Planner

Search our weather history database for the weather conditions in past years. The results will help you decide how hot, cold, wet, or windy it might be!

Date:

Astronomy

Nov. 27, 2013 Rise Set
Actual Time 7:34 AM CST 4:33 PM CST
Civil Twilight 7:00 AM CST 5:07 PM CST
Nautical Twilight 6:23 AM CST 5:44 PM CST
Astronomical Twilight 5:47 AM CST 6:20 PM CST
Moon 1:18 AM CST (11/27) 1:28 PM CST (11/27)
Length of Visible Light 10h 06m
Length of Day
8h 58m
Waning Crescent, 31% of the Moon is Illuminated
Nov 27
Waning Crescent
Dec 2
New
Dec 9
First Quarter
Dec 17
Full
Dec 25
Last Quarter

Hourly Weather History & Observations

Time (CST) Temp. Windchill Dew Point Humidity Pressure Visibility Wind Dir Wind Speed Gust Speed Precip Events Conditions
12:53 AM 10.9 °F 2.9 °F 5.0 °F 77% 30.44 in 10.0 mi North 4.6 mph - N/A   Clear
1:53 AM 9.0 °F 2.4 °F 3.9 °F 80% 30.44 in 10.0 mi NNE 3.5 mph - N/A   Clear
2:53 AM 6.1 °F - 1.9 °F 83% 30.43 in 8.0 mi Calm Calm - N/A   Clear
3:53 AM 5.0 °F - 1.0 °F 84% 30.42 in 10.0 mi Calm Calm - N/A   Partly Cloudy
4:53 AM 3.9 °F - -0.9 °F 80% 30.42 in 10.0 mi Calm Calm - N/A   Clear
5:53 AM 3.0 °F - -0.9 °F 84% 30.40 in 7.0 mi Calm Calm - N/A   Clear
6:53 AM 1.9 °F - -4.0 °F 76% 30.41 in 10.0 mi Calm Calm - N/A   Clear
7:53 AM 3.0 °F - -2.0 °F 80% 30.38 in 8.0 mi Calm Calm - N/A   Scattered Clouds
8:53 AM 7.0 °F - 1.9 °F 80% 30.38 in 7.0 mi Calm Calm - N/A   Clear
9:53 AM 14.0 °F 5.1 °F 8.1 °F 77% 30.35 in 10.0 mi South 5.8 mph - N/A   Partly Cloudy
10:53 AM 15.1 °F 4.2 °F 7.0 °F 70% 30.32 in 10.0 mi SSE 8.1 mph - N/A   Overcast
11:53 AM 16.0 °F 6.3 °F 7.0 °F 68% 30.29 in 10.0 mi South 6.9 mph - N/A   Overcast
12:53 PM 17.1 °F 5.8 °F 7.0 °F 65% 30.24 in 10.0 mi SSE 9.2 mph - N/A   Overcast
1:44 PM 17.6 °F 5.7 °F 8.6 °F 68% 30.11 in 2.5 mi SSE 10.4 mph - 0.00 in Snow Light Snow
1:53 PM 17.1 °F 5.0 °F 8.1 °F 68% 30.19 in 2.0 mi SSE 10.4 mph - 0.00 in Snow Light Snow
2:03 PM 17.6 °F 8.2 °F 8.6 °F 68% 30.10 in 4.0 mi South 6.9 mph - 0.00 in   Haze
2:14 PM 17.6 °F 6.4 °F 8.6 °F 68% 30.10 in 10.0 mi SSE 9.2 mph - 0.00 in   Overcast
2:53 PM 18.0 °F 6.9 °F 7.0 °F 62% 30.17 in 10.0 mi SE 9.2 mph - 0.00 in   Overcast
3:53 PM 19.0 °F 8.2 °F 7.0 °F 59% 30.14 in 10.0 mi SE 9.2 mph - N/A   Overcast
4:53 PM 19.0 °F 9.0 °F 6.1 °F 57% 30.12 in 10.0 mi SSE 8.1 mph - N/A   Overcast
5:53 PM 19.0 °F 13.9 °F 6.1 °F 57% 30.15 in 10.0 mi SE 3.5 mph - N/A   Overcast
6:53 PM 19.0 °F 12.3 °F 6.1 °F 57% 30.16 in 10.0 mi SSE 4.6 mph - N/A   Overcast
7:53 PM 19.9 °F 12.1 °F 7.0 °F 57% 30.14 in 10.0 mi SE 5.8 mph - N/A   Overcast
8:53 PM 19.9 °F 14.9 °F 7.0 °F 57% 30.13 in 10.0 mi SE 3.5 mph - N/A   Overcast
9:53 PM 19.9 °F - 7.0 °F 57% 30.12 in 10.0 mi Calm Calm - N/A   Overcast
10:53 PM 19.9 °F 14.9 °F 8.1 °F 60% 30.11 in 10.0 mi SE 3.5 mph - N/A   Overcast
11:53 PM 21.0 °F - 8.1 °F 57% 30.12 in 10.0 mi Calm Calm - N/A   Overcast